FW0416 Weather Reports


Display with metric or nautical units.
time (UTC)temp
F
wind
direction
speed
MPH
gust
MPH
rain 1hr
in
rain 24hr
in
rain mn
in
humidity
%
barometer
mb
20260504220656 78 179 2.0 4.0 0.00 0.00 0.00 41 1009.3
20260504220154 78 171 5.0 7.0 0.00 0.00 0.00 41 1009.6
20260504215650 78 275 2.0 2.0 0.00 0.00 0.00 41 1009.4
20260504215147 78 164 3.0 6.0 0.00 0.00 0.00 40 1009.2
20260504214643 78 140 3.0 4.0 0.00 0.00 0.00 40 1009.5
20260504214139 78 173 2.0 6.0 0.00 0.00 0.00 40 1009.5
20260504213636 78 158 7.0 9.0 0.00 0.00 0.00 39 1009.5
20260504213133 78 132 2.0 3.0 0.00 0.00 0.00 41 1009.6
20260504212629 78 260 3.0 3.0 0.00 0.00 0.00 40 1009.7
20260504212126 78 176 2.0 2.0 0.00 0.00 0.00 41 1009.7
20260504211624 79 194 3.0 4.0 0.00 0.00 0.00 40 1009.5
20260504211120 78 202 0.0 0.0 0.00 0.00 0.00 41 1009.6
20260504210618 79 162 3.0 4.0 0.00 0.00 0.00 41 1009.8
20260504210109 79 155 2.0 3.0 0.00 0.00 0.00 41 1009.7
20260504205606 79 194 2.0 3.0 0.00 0.00 0.00 39 1009.7
20260504205104 78 175 2.0 4.0 0.00 0.00 0.00 39 1009.8
20260504204602 79 115 4.0 8.0 0.00 0.00 0.00 38 1009.9
20260504204101 78 155 7.0 9.0 0.00 0.00 0.00 38 1010.1
20260504203559 78 236 2.0 2.0 0.00 0.00 0.00 39 1010.0
20260504203056 78 99 6.0 8.0 0.00 0.00 0.00 39 1010.0
20260504202551 78 118 3.0 3.0 0.00 0.00 0.00 39 1010.1
20260504202049 78 159 4.0 6.0 0.00 0.00 0.00 39 1010.2
20260504201545 78 187 2.0 3.0 0.00 0.00 0.00 41 1010.5
20260504201043 78 162 6.0 8.0 0.00 0.00 0.00 39 1010.3
20260504200539 79 70 2.0 3.0 0.00 0.00 0.00 39 1010.7
20260504200036 79 193 2.0 3.0 0.00 0.00 0.00 41 1010.4
20260504195531 79 209 2.0 2.0 0.00 0.00 0.00 41 1010.6
20260504195028 79 216 4.0 4.0 0.00 0.00 0.00 40 1010.6
20260504194525 79 148 0.0 0.0 0.00 0.00 0.00 43 1010.7
20260504194020 78 206 4.0 6.0 0.00 0.00 0.00 41 1010.8
20260504193517 78 159 4.0 6.0 0.00 0.00 0.00 40 1010.9
20260504193016 78 117 11.0 15.0 0.00 0.00 0.00 40 1010.9
20260504192514 78 167 2.0 3.0 0.00 0.00 0.00 41 1011.1
20260504192012 78 145 5.0 7.0 0.00 0.00 0.00 40 1011.3
20260504191509 79 218 4.0 4.0 0.00 0.00 0.00 41 1011.2
20260504191005 79 162 10.0 10.0 0.00 0.00 0.00 39 1011.3
20260504190501 78 132 4.0 7.0 0.00 0.00 0.00 43 1011.4
20260504185957 78 145 0.0 1.0 0.00 0.00 0.00 42 1011.4
20260504185455 79 154 5.0 7.0 0.00 0.00 0.00 39 1011.3
20260504184951 79 155 3.0 4.0 0.00 0.00 0.00 40 1011.5
20260504184447 79 127 1.0 1.0 0.00 0.00 0.00 41 1011.6
20260504183942 78 167 0.0 0.0 0.00 0.00 0.00 40 1011.5
20260504183440 78 178 2.0 3.0 0.00 0.00 0.00 40 1011.8
20260504182938 78 113 7.0 11.0 0.00 0.00 0.00 39 1011.7
20260504182434 79 163 2.0 2.0 0.00 0.00 0.00 41 1011.8
20260504181932 78 270 3.0 4.0 0.00 0.00 0.00 40 1011.9
20260504181429 78 174 3.0 6.0 0.00 0.00 0.00 40 1012.1
20260504180927 79 243 4.0 6.0 0.00 0.00 0.00 40 1012.1
20260504180426 78 168 0.0 1.0 0.00 0.00 0.00 41 1012.0
20260504175924 77 184 3.0 6.0 0.00 0.00 0.00 42 1012.0
20260504175420 78 226 3.0 6.0 0.00 0.00 0.00 42 1012.2
20260504174918 78 184 2.0 2.0 0.00 0.00 0.00 43 1012.1
20260504174415 78 138 2.0 2.0 0.00 0.00 0.00 43 1012.2
20260504173913 78 161 3.0 3.0 0.00 0.00 0.00 42 1012.3
20260504173409 78 202 3.0 4.0 0.00 0.00 0.00 42 1012.5
20260504172906 77 159 3.0 4.0 0.00 0.00 0.00 43 1012.4
20260504172402 77 132 3.0 6.0 0.00 0.00 0.00 44 1012.3
20260504171859 77 194 1.0 2.0 0.00 0.00 0.00 45 1012.5
20260504171356 78 158 2.0 2.0 0.00 0.00 0.00 46 1012.6
20260504170853 77 183 2.0 2.0 0.00 0.00 0.00 45 1012.6
20260504170349 78 183 2.0 4.0 0.00 0.00 0.00 46 1012.5
20260504160308 73 153 1.0 1.0 0.00 0.00 0.00 54 1013.3
20260504150733 70 210 2.0 2.0 0.00 0.00 0.00 59 1013.9
20260504150230 70 260 2.0 2.0 0.00 0.00 0.00 60 1013.9
20260504141159 66 177 0.0 1.0 0.00 0.00 0.00 69 1014.2
20260504140656 66 154 3.0 4.0 0.00 0.00 0.00 68 1014.1
20260504140152 66 154 1.0 2.0 0.00 0.00 0.00 69 1014.0
20260504130620 62 159 1.0 1.0 0.00 0.00 0.00 77 1013.9
20260504130117 62 145 3.0 3.0 0.00 0.00 0.00 79 1014.0
20260504110508 54 136 0.0 0.0 0.00 0.00 0.00 90 1012.8
20260504100430 55 140 0.0 0.0 0.00 0.00 0.00 89 1013.4
20260504081823 55 139 0.0 0.0 0.00 0.00 0.00 87 1013.4
20260504081320 55 143 0.0 0.0 0.00 0.00 0.00 87 1013.6
20260504080816 55 143 0.0 0.0 0.00 0.00 0.00 87 1013.5
20260504080313 55 143 0.0 0.0 0.00 0.00 0.00 87 1013.6
20260504070240 55 139 0.0 0.0 0.00 0.00 0.00 87 1014.0
20260504060201 55 142 0.0 0.0 0.00 0.00 0.00 85 1014.7
20260504050629 56 146 0.0 0.0 0.00 0.00 0.00 81 1015.1
20260504050126 56 143 0.0 0.0 0.00 0.00 0.00 81 1015.1
20260504045623 56 143 0.0 0.0 0.00 0.00 0.00 82 1015.1
20260504045118 56 141 0.0 0.0 0.00 0.00 0.00 82 1015.1
20260504044616 56 141 0.0 0.0 0.00 0.00 0.00 83 1015.0
20260504044112 56 142 0.0 0.0 0.00 0.00 0.00 82 1015.0
20260504043610 56 143 0.0 0.0 0.00 0.00 0.00 81 1015.0
20260504043107 56 145 0.0 0.0 0.00 0.00 0.00 81 1015.2
20260504042604 56 144 0.0 0.0 0.00 0.00 0.00 79 1015.0
20260504042100 56 144 0.0 0.0 0.00 0.00 0.00 78 1015.0
20260504041556 56 144 0.0 0.0 0.00 0.00 0.00 79 1015.0
20260504041053 56 143 0.0 0.0 0.00 0.00 0.00 81 1015.1
20260504040550 56 144 0.0 0.0 0.00 0.00 0.00 80 1014.8
20260504040047 57 144 0.0 0.0 0.00 0.00 0.00 81 1015.0
20260504035543 57 144 0.0 0.0 0.00 0.00 0.00 81 1015.0
20260504035040 57 143 0.0 0.0 0.00 0.00 0.00 79 1015.1
20260504034538 57 141 0.0 0.0 0.00 0.00 0.00 80 1015.3
20260504034034 57 140 0.0 0.0 0.00 0.00 0.00 81 1015.1
20260504033533 57 140 0.0 0.0 0.00 0.00 0.00 81 1015.1
20260504033030 57 140 0.0 0.0 0.00 0.00 0.00 80 1015.1
20260504032527 57 138 0.0 0.0 0.00 0.00 0.00 82 1015.2
20260504032023 57 137 0.0 0.0 0.00 0.00 0.00 81 1015.1
20260504031520 57 139 0.0 0.0 0.00 0.00 0.00 80 1015.3
20260504031016 57 136 0.0 0.0 0.00 0.00 0.00 81 1015.4
20260504030514 57 133 0.0 0.0 0.00 0.00 0.00 81 1015.4
20260504030010 57 136 0.0 0.0 0.00 0.00 0.00 78 1015.4
20260504025507 57 139 0.0 0.0 0.00 0.00 0.00 78 1015.5
20260504025003 58 139 0.0 0.0 0.00 0.00 0.00 76 1015.3
20260504024500 58 139 0.0 0.0 0.00 0.00 0.00 75 1015.2
20260504023958 58 139 0.0 0.0 0.00 0.00 0.00 74 1015.2
20260504023455 58 139 0.0 0.0 0.00 0.00 0.00 74 1015.4
20260504022950 58 139 0.0 0.0 0.00 0.00 0.00 72 1015.4
20260504022446 59 139 0.0 0.0 0.00 0.00 0.00 73 1015.3
20260504021943 59 139 0.0 0.0 0.00 0.00 0.00 73 1015.2
20260504021440 59 137 0.0 0.0 0.00 0.00 0.00 72 1015.0
20260504020938 59 137 0.0 0.0 0.00 0.00 0.00 71 1015.1
20260504020434 60 141 0.0 0.0 0.00 0.00 0.00 71 1015.1
20260504015931 60 141 0.0 0.0 0.00 0.00 0.00 71 1014.9
20260504015427 60 141 0.0 0.0 0.00 0.00 0.00 70 1015.0
20260504014923 61 142 0.0 0.0 0.00 0.00 0.00 69 1015.0
20260504014419 61 142 0.0 0.0 0.00 0.00 0.00 68 1015.0
20260504013916 61 142 0.0 0.0 0.00 0.00 0.00 66 1014.9
20260504013415 62 142 0.0 0.0 0.00 0.00 0.00 65 1014.9
20260504012910 62 140 0.0 0.0 0.00 0.00 0.00 64 1014.7
20260504012408 62 135 0.0 0.0 0.00 0.00 0.00 64 1014.6
20260504011905 63 142 0.0 0.0 0.00 0.00 0.00 62 1014.8
20260504011402 63 144 0.0 0.0 0.00 0.00 0.00 62 1014.7
20260504010858 64 145 0.0 0.0 0.00 0.00 0.00 60 1015.0
20260504010354 64 142 0.0 0.0 0.00 0.00 0.00 59 1014.8
20260504005851 65 142 0.0 0.0 0.00 0.00 0.00 58 1014.7
20260504005347 66 144 0.0 0.0 0.00 0.00 0.00 56 1014.8
20260504004845 66 144 0.0 0.0 0.00 0.00 0.00 54 1014.8
20260504004343 67 144 0.0 0.0 0.00 0.00 0.00 53 1014.9
20260504003839 68 144 0.0 0.0 0.00 0.00 0.00 51 1014.8
20260504003336 68 145 0.0 0.0 0.00 0.00 0.00 49 1014.9
20260504002832 69 145 0.0 0.0 0.00 0.00 0.00 48 1014.8
20260504002329 69 143 0.0 0.0 0.00 0.00 0.00 47 1014.7
20260504001827 70 142 0.0 0.0 0.00 0.00 0.00 45 1014.9
20260504001324 70 142 0.0 0.0 0.00 0.00 0.00 45 1014.7
20260504000820 71 147 0.0 0.0 0.00 0.00 0.00 42 1014.7
20260504000318 71 138 0.0 0.0 0.00 0.00 0.00 42 1014.8
20260503235815 71 160 0.0 0.0 0.00 0.00 0.00 41 1014.7
20260503235313 72 153 0.0 0.0 0.00 0.00 0.00 41 1014.8
20260503234810 72 150 0.0 0.0 0.00 0.00 0.00 39 1014.9
20260503234308 72 148 0.0 0.0 0.00 0.00 0.00 37 1014.9
20260503233806 72 159 1.0 1.0 0.00 0.00 0.00 37 1015.1
20260503233301 72 137 1.0 2.0 0.00 0.00 0.00 37 1015.0
20260503232758 72 149 0.0 0.0 0.00 0.00 0.00 37 1015.1
20260503232255 73 138 2.0 3.0 0.00 0.00 0.00 37 1015.2
20260503231753 73 160 3.0 3.0 0.00 0.00 0.00 36 1015.2
20260503231250 73 153 1.0 1.0 0.00 0.00 0.00 36 1015.3
20260503230746 73 157 7.0 10.0 0.00 0.00 0.00 35 1015.4
20260503230243 73 154 0.0 1.0 0.00 0.00 0.00 37 1015.4
20260503225741 73 116 0.0 1.0 0.00 0.00 0.00 36 1015.3
20260503225241 73 185 1.0 1.0 0.00 0.00 0.00 36 1015.3
20260503224738 73 170 4.0 4.0 0.00 0.00 0.00 35 1015.5
20260503224236 73 149 1.0 1.0 0.00 0.00 0.00 35 1015.5
20260503223733 73 161 0.0 1.0 0.00 0.00 0.00 36 1015.3
20260503223230 73 153 0.0 0.0 0.00 0.00 0.00 35 1015.8
20260503222726 73 149 1.0 2.0 0.00 0.00 0.00 34 1015.7
20260503222225 73 140 1.0 2.0 0.00 0.00 0.00 35 1015.5
20260503221723 73 115 1.0 2.0 0.00 0.00 0.00 35 1015.7
20260503221220 73 40 0.0 1.0 0.00 0.00 0.00 34 1015.8